Location: Gouy
(50.0008°N, 3.2556°E)
Time: 02:08:40
(UTC+00:00)

Cosmos 1782 Rocket - Pass Details

Date: 17 August 2024
Orbit: 603 x 628 km, 82.5° (Epoch: 11 September)

Event Time Altitude Azimuth Distance (km) Brightness Sun altitude
Rises 02:03:55 0° 129° (SE) 2,897 7.0 -20.3°
Reaches altitude 10° 02:08:09 10° 90° (E) 2,004 6.6 -19.9°
Maximum altitude 02:08:56 10° 79° (E) 1,978 6.8 -19.9°
Drops below altitude 10° 02:09:44 10° 69° (ENE) 2,009 7.0 -19.8°
Sets 02:14:00 0° 30° (NNE) 2,928 8.6 -19.4°
